Weather History for KBHB - September, 2012

Change the Weather History Date:

Wednesday, September 19, 2012

  Actual Average Record
Temperature  
Mean Temperature 58 °F -  
Max Temperature 69 °F 67 °F 76 °F (1968)
Min Temperature 48 °F 48 °F 33 °F (2014)
Degree Days  
Heating Degree Days 6    
Growing Degree Days 8 (Base 50)    
Moisture  
Dew Point 55 °F    
Average Humidity 79    
Maximum Humidity 100    
Minimum Humidity 40    
Precipitation  
Precipitation 0.44 in - - ()
Sea Level Pressure  
Sea Level Pressure 29.94 in    
Wind  
Wind Speed 18 mph (WNW)    
Max Wind Speed 31 mph    
Max Gust Speed 44 mph    
Visibility 9 miles    
Events      
Averages and records for this station are not official NWS values.
T = Trace of Precipitation, MM = Missing Value Source: NWS Daily Summary

Daily Weather History Graph

Daily Weather History Graph

Search for Another Location

Airport or City:

Trip Planner

Search our weather history database for the weather conditions in past years. The results will help you decide how hot, cold, wet, or windy it might be!

Date:

Astronomy

Sep. 19, 2012 Rise Set
Actual Time 6:17 AM EDT 6:35 PM EDT
Civil Twilight 5:48 AM EDT 7:04 PM EDT
Nautical Twilight 5:14 AM EDT 7:38 PM EDT
Astronomical Twilight 4:38 AM EDT 8:13 PM EDT
Moon 10:35 AM EDT (9/19) 8:29 PM EDT (9/19)
Length of Visible Light 13h 16m
Length of Day
12h 18m
Waxing Crescent, 17% of the Moon is Illuminated
Sep 19
Waxing Crescent
Sep 22
First Quarter
Sep 29
Full
Oct 8
Last Quarter
Oct 15
New

Hourly Weather History & Observations

Time (EDT) Temp. Dew Point Humidity Pressure Visibility Wind Dir Wind Speed Gust Speed Precip Events Conditions
12:15 AM 66.2 °F 62.6 °F 88% 29.85 in 10.0 mi South 24.2 mph 31.1 mph N/A   Overcast
12:35 AM 66.2 °F 62.6 °F 88% 29.84 in 10.0 mi South 19.6 mph 35.7 mph N/A   Overcast
12:55 AM 68.0 °F 62.6 °F 83% 29.83 in 10.0 mi South 26.5 mph 34.5 mph N/A   Overcast
1:15 AM 68.0 °F 62.6 °F 83% 29.83 in 10.0 mi South 29.9 mph 36.8 mph N/A   Overcast
1:55 AM 68.0 °F 64.4 °F 88% 29.81 in 10.0 mi South 26.5 mph 36.8 mph N/A   Overcast
2:15 AM 66.2 °F 64.4 °F 94% 29.80 in 10.0 mi SSE 28.8 mph 38.0 mph N/A   Mostly Cloudy
2:35 AM 66.2 °F 64.4 °F 94% 29.79 in 10.0 mi South 26.5 mph 41.4 mph N/A   Overcast
2:55 AM 66.2 °F 64.4 °F 94% 29.78 in 10.0 mi SSE 27.6 mph 36.8 mph N/A   Overcast
3:15 AM 66.2 °F 64.4 °F 94% 29.78 in 10.0 mi South 28.8 mph 34.5 mph N/A   Overcast
3:35 AM 66.2 °F 64.4 °F 94% 29.77 in 9.0 mi South 26.5 mph 38.0 mph 0.01 in   Mostly Cloudy
3:55 AM 66.2 °F 64.4 °F 94% 29.76 in 9.0 mi South 28.8 mph 36.8 mph 0.03 in   Overcast
4:15 AM 66.2 °F 64.4 °F 94% 29.76 in 9.0 mi South 26.5 mph 38.0 mph 0.02 in   Overcast
4:35 AM 66.2 °F 64.4 °F 94% 29.75 in 9.0 mi South 27.6 mph 40.3 mph 0.02 in   Overcast
4:55 AM 66.2 °F 66.2 °F 100% 29.75 in 9.0 mi South 27.6 mph 36.8 mph 0.03 in   Overcast
5:15 AM 68.0 °F 66.2 °F 94% 29.74 in 10.0 mi South 31.1 mph 42.6 mph N/A   Overcast
5:55 AM 69.8 °F 66.2 °F 88% 29.75 in 9.0 mi South 29.9 mph 43.7 mph 0.01 in   Overcast
6:15 AM 69.8 °F 66.2 °F 88% 29.75 in 4.0 mi South 29.9 mph 41.4 mph 0.07 in   Overcast
6:35 AM 68.0 °F 66.2 °F 94% 29.76 in 5.0 mi South 25.3 mph 43.7 mph 0.13 in   Overcast
6:55 AM 68.0 °F 66.2 °F 94% 29.77 in 5.0 mi SSW 28.8 mph 39.1 mph 0.16 in   Overcast
7:15 AM 66.2 °F 64.4 °F 94% 29.78 in 5.0 mi South 23.0 mph 31.1 mph 0.03 in   Overcast
7:35 AM 66.2 °F 66.2 °F 100% 29.78 in 6.0 mi South 18.4 mph 27.6 mph 0.04 in   Overcast
7:55 AM 66.2 °F 66.2 °F 100% 29.78 in 6.0 mi SSW 18.4 mph - 0.05 in   Overcast
8:15 AM 66.2 °F 66.2 °F 100% 29.78 in 4.0 mi SSW 15.0 mph 19.6 mph 0.01 in   Overcast
8:35 AM 66.2 °F 66.2 °F 100% 29.79 in 2.5 mi SSW 17.3 mph 23.0 mph 0.06 in   Overcast
9:15 AM 64.4 °F 64.4 °F 100% 29.80 in 4.0 mi SSW 13.8 mph - 0.05 in   Overcast
9:35 AM 64.4 °F 62.6 °F 94% 29.80 in 2.5 mi SSW 10.4 mph - 0.08 in   Overcast
9:55 AM 64.4 °F 64.4 °F 100% 29.81 in 7.0 mi SSW 6.9 mph - 0.08 in   Overcast
10:15 AM 66.2 °F 66.2 °F 100% 29.82 in 2.0 mi SW 5.8 mph - 0.01 in   Overcast
10:55 AM 60.8 °F 59.0 °F 94% 29.85 in 10.0 mi North 8.1 mph - 0.02 in   Overcast
11:35 AM 62.6 °F 60.8 °F 94% 29.86 in 10.0 mi Calm Calm - N/A   Unknown
11:55 AM 62.6 °F 60.8 °F 94% 29.88 in 10.0 mi North 3.5 mph - N/A   Overcast
12:15 PM 64.4 °F 59.0 °F 83% 29.89 in 10.0 mi NNW 9.2 mph 16.1 mph N/A   Overcast
12:35 PM 64.4 °F 59.0 °F 83% 29.90 in 10.0 mi NW 9.2 mph - N/A   Mostly Cloudy
12:55 PM 64.4 °F 57.2 °F 77% 29.90 in 10.0 mi NNW 8.1 mph - N/A   Mostly Cloudy
1:15 PM 64.4 °F 57.2 °F 77% 29.92 in 10.0 mi NNW 8.1 mph - N/A   Overcast
1:35 PM 64.4 °F 57.2 °F 77% 29.94 in 10.0 mi NNW 8.1 mph - N/A   Overcast
1:55 PM 64.4 °F 55.4 °F 73% 29.95 in 10.0 mi NNW 6.9 mph - N/A   Overcast
2:15 PM 64.4 °F 55.4 °F 73% 29.96 in 10.0 mi NW 8.1 mph - N/A   Overcast
2:35 PM 64.4 °F 55.4 °F 73% 29.97 in 10.0 mi NNW 6.9 mph - N/A   Overcast
2:55 PM 64.4 °F 51.8 °F 64% 29.98 in 10.0 mi NW 6.9 mph - N/A   Overcast
3:15 PM 64.4 °F 48.2 °F 56% 29.99 in 10.0 mi NNW 8.1 mph - N/A   Overcast
3:35 PM 64.4 °F 50.0 °F 59% 29.99 in 10.0 mi NNW 4.6 mph - N/A   Mostly Cloudy
3:55 PM 64.4 °F 48.2 °F 56% 30.00 in 10.0 mi NNW 6.9 mph - N/A   Partly Cloudy
4:15 PM 64.4 °F 39.2 °F 40% 30.01 in 10.0 mi NNW 10.4 mph 17.3 mph N/A   Clear
4:35 PM 64.4 °F 42.8 °F 45% 30.02 in 10.0 mi NNW 6.9 mph - N/A   Clear
4:55 PM 64.4 °F 39.2 °F 40% 30.03 in 10.0 mi NNW 6.9 mph - N/A   Clear
5:15 PM 64.4 °F 39.2 °F 40% 30.03 in 10.0 mi NNW 8.1 mph 16.1 mph N/A   Clear
5:35 PM 62.6 °F 39.2 °F 42% 30.05 in 10.0 mi NNW 4.6 mph - N/A   Clear
5:55 PM 62.6 °F 39.2 °F 42% 30.06 in 10.0 mi NW 4.6 mph - N/A   Clear
6:15 PM 60.8 °F 42.8 °F 52% 30.06 in 10.0 mi NW 3.5 mph - N/A   Clear
6:35 PM 59.0 °F 44.6 °F 59% 30.07 in 10.0 mi NW 4.6 mph - N/A   Clear
6:55 PM 57.2 °F 44.6 °F 63% 30.08 in 10.0 mi NNW 4.6 mph - N/A   Clear
7:15 PM 55.4 °F 44.6 °F 67% 30.10 in 10.0 mi NNW 3.5 mph - N/A   Clear
7:35 PM 55.4 °F 42.8 °F 63% 30.11 in 10.0 mi NNW 4.6 mph - N/A   Clear
7:55 PM 55.4 °F 42.8 °F 63% 30.12 in 10.0 mi NNW 3.5 mph - N/A   Clear
8:15 PM 53.6 °F 42.8 °F 67% 30.14 in 10.0 mi NNW 3.5 mph - N/A   Clear
8:35 PM 53.6 °F 44.6 °F 72% 30.15 in 10.0 mi NNE 4.6 mph - N/A   Clear
9:15 PM 51.8 °F 44.6 °F 76% 30.17 in 10.0 mi Calm Calm - N/A   Clear
9:35 PM 51.8 °F 44.6 °F 76% 30.17 in 10.0 mi North 4.6 mph - N/A   Clear
9:55 PM 51.8 °F 42.8 °F 71% 30.18 in 10.0 mi North 4.6 mph - N/A   Clear
10:15 PM 51.8 °F 42.8 °F 71% 30.19 in 10.0 mi North 4.6 mph - N/A   Clear
10:35 PM 51.8 °F 42.8 °F 71% 30.20 in 10.0 mi NNE 4.6 mph - N/A   Clear
10:55 PM 50.0 °F 44.6 °F 82% 30.20 in 10.0 mi NNW 3.5 mph - N/A   Clear
11:15 PM 48.2 °F 42.8 °F 82% 30.21 in 10.0 mi Calm Calm - N/A   Clear
11:35 PM 48.2 °F 42.8 °F 82% 30.21 in 10.0 mi Calm Calm - N/A   Clear
11:55 PM 48.2 °F 42.8 °F 82% 30.22 in 10.0 mi NNW 3.5 mph - N/A   Clear